Starlink 11233

operational
NORAD ID: 61061 Int'l Des: 2024-164 Owner: SPXS Country: US Constellation: starlink
LEOCIRCULAR

About Starlink 11233

Description loading...

Live Position

Loading 3D Globe...

Upcoming Passes

Altitude History

Altitude vs Time

uPlot chart will show altitude changes over time

Two-Line Element Set

1 61061U 24164M 25352.29819662 .00000033 00000-0 51355-5 0 9991
2 61061 53.1609 352.6275 0001399 93.2702 266.8476 15.69717899 72634
Epoch: Dec 18, 2025 • Age: 11 hours

Current Status

Altitude 360.0 km
Velocity 7.70 km/s
Sub-Earth Point 22.47°N, 11.15°E
Launch Date Sep 13, 2024
Age 1.2 years
Type internet

Technical Details

Classification Payload
Mass 960.00 kg
Dry Mass 910.00 kg
Total Mass 960.00 kg
Length 0.30 m
Diameter 4.10 m
Span 29.00 m
Shape Box + pan
Manufacturer SPXS
Bus Type Starlink V2MD
Phase Status In Orbit
Owner/State SPXS/US

Large Constellations

Loading constellations...